User: anonymous   Login
Location: *
(51.1248°S, 108.4023°W)
Time: 09:47:40
(UTC+00:00)
Language:

Cosmos 2315 Rocket - Orbit

View from above orbital plane
View from above orbital plane
View from above satellite
View from above satellite

Ground track
Ground track

The orbit data is extracted from the following two-line orbital elements,

1 23604U 95032B   21264.75871322 -.00000069  00000-0 -89327-4 0  9994
2 23604  82.9004  77.8450 0023385 220.6653 139.2757 13.74300788314728
Epoch (UTC): 21 September 2021 18:12:32
Eccentricity: 0.0023385
inclination: 82.9004°
perigee height: 967 km
apogee height: 1001 km
right ascension of ascending node: 77.8450°
argument of perigee: 220.6653°
revolutions per day: 13.74300788
mean anomaly at epoch: 139.2757°
orbit number at epoch: 31472

The dashed part of the orbit path shows where the satellite is in the earth's shadow,  

DLR